Flag for Czech Republic Weather past 2 weeks in Ostrava, Czech Republic

Now
57 °F

Fog.


Feels Like: N/A
Forecast: 50 / 73 °F
Wind: N/A

Location: Ostrava / Mosnov

Current Time: Sep 16, 2014 at 3:24:44 AM

Latest Report: Sep 16, 2014 at 2:00 AM


Visibility: 2 mi

Pressure: 30.11 "Hg

Humidity: 96%

Dew point: 56 °F

Location of OstravaLocation

Historic Weather in Ostrava — Graph

°F

Ostrava temperature yesterday

Maximum temperature yesterday: 67 °F (at 4:00 PM)
Minimum temperature yesterday: 58 °F (at 8:00 AM)
Average temperature yesterday: 61 °F

Past Weeks' High & Low Weather Summary

 TemperatureHumidityPressure
High78 °F (Sep 8, 2:00 PM)100% (Sep 12, 9:00 PM)30.16 "Hg (Sep 12, 9:00 PM)
Low53 °F (Sep 6, 7:00 AM)45% (Sep 8, 4:00 PM)29.85 "Hg (Sep 12, 5:00 AM)
Average62 °F88%30.01 "Hg
* Reported Sep 1 2:00 AM — Sep 16 2:00 AM, Ostrava, Weather by CustomWeather, © 2014

Note: Actual official high and low records may vary slightly from our data, if they occured in-between our weather recording intervals... More about our weather records

Advertising

Ostrava weather history for previous 24 hours

 ConditionsComfort  
Time TempWeatherWind HumidityBarometerVisibility
2:00 AM
Sep 16
57 °FFog.N/A96%30.11 "Hg2 mi
1:00 AM58 °FFog.1 mph97%30.11 "Hg2 mi
12:00 AM56 °FFog.2 mph94%30.11 "Hg2 mi
11:00 PM
Sep 15
60 °FFog.3 mph94%30.11 "Hg2 mi
10:00 PM59 °FFog.N/A94%30.10 "Hg4 mi
9:00 PM62 °FFog.N/A93%30.10 "Hg4 mi
8:00 PM63 °FFog.3 mph90%30.09 "Hg4 mi
7:00 PM64 °FFog.2 mph87%30.08 "Hg4 mi
6:00 PM66 °FFog.1 mph79%30.07 "Hg4 mi
5:00 PM67 °FFog.1 mph71%30.07 "Hg5 mi
4:00 PM67 °FFog.N/A68%30.07 "Hg5 mi
3:00 PM65 °FFog.N/A69%30.08 "Hg5 mi
2:00 PM63 °FFog.N/A74%30.09 "Hg5 mi
1:00 PM62 °FFog.N/A80%30.10 "Hg4 mi
12:00 PM60 °FFog.2 mph85%30.10 "Hg4 mi
11:00 AM60 °FFog.3 mph85%30.09 "Hg4 mi
10:00 AM59 °FFog.3 mph94%30.09 "Hg4 mi
9:00 AM58 °FFog.5 mph94%30.08 "Hg2 mi
8:00 AM58 °FFog.5 mph97%30.07 "Hg2 mi
7:00 AM58 °FFog.3 mph97%30.06 "Hg2 mi
6:00 AM58 °FFog.3 mph99%30.05 "Hg2 mi
5:00 AM58 °FFog.2 mph98%30.05 "Hg3 mi
4:00 AM59 °FFog.2 mph98%30.05 "Hg3 mi
3:00 AM58 °FFog.2 mph98%30.05 "Hg2 mi
Weather by CustomWeather, © 2014

See weather overviewHow to use our weather pages